CZ-6A DEB

Satellite information

Favourite Embed

Satellite Type and Status

DEBRISIN ORBIT

Key statistics

Satellite CZ-6A DEB at a glance.

Uptime

1129

Days in orbit

Revolutions

≈ 13.9

Per day

Orbit

SSO

Sun Synchronous Orbit

Inclination

98.9

Latest

Satellite identification and parameters

Extended collection of information and parameters for CZ-6A DEB.

Object identification

Identified? True

Debris? True

Object name: CZ-6A DEB

International designator: 2022-151HA

Object number (NORAD): 54474

Object ID (CCSDS): 54474

Country: PEOPLES REPUBLIC OF CHINA (PRC)

Current information (Y/N): Y

RCS size: SMALL

Orbital parameters

Period: 103.544 minutes

Inclination: 98.9044 deg

SMA: 7304.251 km

Apoapsis: 1027.131 km

Periapsis: 825.102 km

RAAN: 312.8636 deg

Eccentricy: 0.01382957

Argument of periapsis: 248.5962 deg

Mean anomaly: 110.0396 deg

Mean motion: 13.90718399 rev/day

Mean motion (dot): 0.00000667 rev/day2

B* drag term: 0.00052630726 1/REarth

Two-line elements (TLE)

Creation date: Dec. 14, 2025, 3:07 a.m.

Reference frame: TEME

Reference center: EARTH

Epoch: Dec. 13, 2025, 11:06 a.m. UTC

TLE line 0: 0 CZ-6A DEB

TLE line 1: 1 54474U 22151HA 25347.46271789 .00000667 00000-0 52631-3 0 9999

TLE line 2: 2 54474 98.9044 312.8636 0138296 248.5962 110.0396 13.90718399156309

Live tracking on map

Real-time ground track for satellite CZ-6A DEB.

In-orbit conjunctions

A list of the most updated potential collisions computed for object CZ-6A DEB.

Target Orbit TCA Probability of collision Miss distance Type
COSMOS 1579 COOLANT LEO 2025-11-14 11:28:49 0.0003139078 127.0 (m) DEBRIS
COSMOS 2251 DEB LEO 2025-10-01 13:21:40 0.0009826852 22.0 (m) DEBRIS
COSMOS 1027 LEO 2024-06-02 06:28:21 0.0008079276 146.0 (m) PAYLOAD

Associated space launch

Chinese satellite reported for atmospheric/ocean/environmental/spatial parameter research purposes, details TBD.

CZ-6A DEB was lifted into orbit during the mission ‘Long March 6A | Yunhai 3’, on board a Long March 6A space rocket.

The launch took place on Nov. 11, 2022, 10:52 p.m. from Launch Complex 9A.

For more information about the launch, click the button.

Launch to space Long March 6A | Yunhai 3
Long March 6A | Yunhai 3

Agency: N/A

Status: Launch Successful

Launch date: Nov. 11, 2022, 10:52 p.m. UTC

Rocket: Long March 6A

Launch pad: Launch Complex 9A

Location: Taiyuan Satellite Launch Center, People's Republic of China

...

Latest news about this satellite

There are no fresh news available about this satellite. Check back as we update our databases every day.


Newsletter sign-up

Weekly statistics, charts and insights to help you stay on top of the space industry.